Flag for U.S.A. Weather past 2 weeks in Babylon, New York, U.S.A.

Now
60 °F

Clear.


Feels Like: 60 °F
Forecast: 62 / 74 °F
Wind: 5 mph from Northeast

Location: Republic Airport

Current Time: Aug 29, 2014 at 6:27:29 AM

Latest Report: Aug 29, 2014 at 5:53 AM


Visibility: 10 mi

Pressure: 30.11 "Hg

Humidity: 72%

Dew point: 51 °F

Location of BabylonLocation

Historic Weather in Babylon — Graph

°F

Babylon temperature yesterday

Maximum temperature yesterday: 80 °F (at 3:53 PM)
Minimum temperature yesterday: 67 °F (at 11:53 PM)
Average temperature yesterday: 73 °F

Past Weeks' High & Low Weather Summary

 TemperatureHumidityPressure
High85 °F (Aug 25, 4:53 PM)97% (Aug 20, 6:53 AM)30.17 "Hg (Aug 20, 6:53 AM)
Low58 °F (Aug 15, 5:53 AM)37% (Aug 28, 4:53 PM)29.80 "Hg (Aug 14, 4:53 AM)
Average70 °F69%29.99 "Hg
* Reported Aug 14 4:53 AM — Aug 29 4:53 AM, Babylon, Weather by CustomWeather, © 2014

Note: Actual official high and low records may vary slightly from our data, if they occured in-between our weather recording intervals... More about our weather records

Advertising

Babylon weather history for previous 24 hours

 ConditionsComfort  
Time TempWeatherWind HumidityBarometerVisibility
4:53 AM
Aug 29
62 °FClear.7 mph67%30.09 "Hg10 mi
3:53 AM63 °FClear.8 mph65%30.07 "Hg10 mi
2:53 AM64 °FClear.8 mph63%30.06 "Hg10 mi
1:53 AM65 °FOvercast.12 mph61%30.06 "Hg10 mi
12:53 AM66 °FClear.10 mph59%30.06 "Hg10 mi
11:53 PM
Aug 28
67 °FClear.9 mph59%30.05 "Hg10 mi
10:53 PM69 °FClear.9 mph53%30.03 "Hg10 mi
9:53 PM71 °FPassing clouds.8 mph51%30.01 "Hg10 mi
8:53 PM72 °FClear.7 mph49%29.98 "Hg10 mi
7:53 PM74 °FPassing clouds.9 mph43%29.95 "Hg10 mi
6:53 PM76 °FSunny.12 mph42%29.92 "Hg10 mi
5:53 PM78 °FPassing clouds.12 mph37%29.90 "Hg10 mi
4:53 PM78 °FScattered clouds.9 mph37%29.88 "Hg10 mi
3:53 PM80 °FScattered clouds.13 mph39%29.87 "Hg10 mi
2:53 PM79 °FPartly sunny.10 mph44%29.86 "Hg10 mi
1:53 PM78 °FOvercast.14 mph45%29.88 "Hg10 mi
12:53 PM78 °FPassing clouds.14 mph48%29.88 "Hg10 mi
11:53 AM76 °FSunny.12 mph54%29.88 "Hg10 mi
10:53 AM74 °FSunny.15 mph57%29.88 "Hg10 mi
9:53 AM72 °FSunny.16 mph61%29.88 "Hg10 mi
8:53 AM71 °FSunny.14 mph63%29.89 "Hg10 mi
7:53 AM70 °FSunny.12 mph68%29.88 "Hg10 mi
6:53 AM68 °FClear.7 mph73%29.87 "Hg10 mi
Weather by CustomWeather, © 2014

See weather overviewHow to use our weather pages